Location: Prostejov
(49.4670°N, 17.1170°E)
Time: 10:23:52
(UTC+02:00)

ISS - Pass Details

Date: 25 May 2021
Orbit: 417 x 422 km, 51.6° (Epoch: 13 June)

Event Time Altitude Azimuth Distance (km) Brightness Sun altitude
Rises 23:49:28 0° 287° (WNW) 2,369 0.5 -18.2°
Reaches altitude 10° 23:51:47 10° 273° (W) 1,502 -0.7 -18.3°
Enters shadow 23:53:41 22° 244° (WSW) 977 -2.1 -18.4°
